| time (UTC) | temp F | wind direction | speed MPH | gust MPH | rain 1hr in | rain 24hr in | rain mn in | humidity % | barometer mb |
| 20260504174055 | 63 | 115 | 1.0 | 4.0 | 0.00 | 0.05 | 0.01 | 83 | 1011.7 |
| 20260504173555 | 63 | 73 | 1.0 | 5.0 | 0.00 | 0.05 | 0.01 | 83 | 1011.8 |
| 20260504173056 | 64 | 111 | 1.0 | 5.0 | 0.00 | 0.05 | 0.01 | 83 | 1011.7 |
| 20260504172555 | 64 | 83 | 1.0 | 4.0 | 0.00 | 0.05 | 0.01 | 84 | 1011.8 |
| 20260504172058 | 64 | 96 | 1.0 | 4.0 | 0.00 | 0.05 | 0.01 | 83 | 1011.8 |
| 20260504171711 | 64 | 136 | 2.0 | 5.0 | 0.00 | 0.05 | 0.01 | 83 | 1011.7 |
| 20260504171651 | 64 | 96 | 1.0 | 4.0 | 0.00 | 0.05 | 0.01 | 83 | 1011.7 |
| 20260504170853 | 64 | 67 | 2.0 | 5.0 | 0.00 | 0.05 | 0.01 | 82 | 1011.7 |
| 20260504150537 | 65 | 44 | 2.0 | 5.0 | 0.00 | 0.05 | 0.01 | 80 | 1011.8 |
| 20260504141034 | 68 | 304 | 1.0 | 4.0 | 0.00 | 0.06 | 0.01 | 74 | 1011.9 |
| 20260504140835 | 68 | 238 | 1.0 | 4.0 | 0.00 | 0.06 | 0.01 | 73 | 1011.9 |
| 20260504130619 | 68 | 192 | 1.0 | 3.0 | 0.00 | 0.09 | 0.01 | 71 | 1012.2 |
| 20260504130604 | 68 | 327 | 1.0 | 3.0 | 0.00 | 0.09 | 0.01 | 70 | 1012.2 |
| 20260504120306 | 67 | 314 | 1.0 | 4.0 | 0.00 | 0.12 | 0.01 | 75 | 1012.4 |
| 20260504110500 | 65 | 298 | 0.0 | 2.0 | 0.00 | 0.12 | 0.01 | 80 | 1012.8 |
| 20260504110248 | 65 | 317 | 1.0 | 3.0 | 0.00 | 0.12 | 0.01 | 81 | 1012.8 |
| 20260504100432 | 64 | 117 | 0.0 | 2.0 | 0.00 | 0.12 | 0.01 | 82 | 1013.0 |
| 20260504081919 | 59 | 182 | 0.0 | 2.0 | 0.00 | 0.12 | 0.01 | 96 | 1012.8 |
| 20260504081417 | 58 | 130 | 1.0 | 3.0 | 0.00 | 0.12 | 0.01 | 96 | 1012.8 |
| 20260504080912 | 58 | 78 | 1.0 | 3.0 | 0.00 | 0.12 | 0.01 | 96 | 1012.7 |
| 20260504080410 | 58 | 119 | 0.0 | 2.0 | 0.00 | 0.12 | 0.01 | 97 | 1012.6 |
| 20260504070402 | 57 | 134 | 0.0 | 2.0 | 0.00 | 0.12 | 0.01 | 97 | 1012.5 |
| 20260504050345 | 56 | 227 | 0.0 | 0.0 | 0.00 | 0.12 | 0.01 | 97 | 1011.5 |
| 20260504045839 | 56 | 227 | 0.0 | 0.0 | 0.00 | 0.12 | 0.01 | 97 | 1011.5 |
| 20260504045440 | 56 | 227 | 0.0 | 0.0 | 0.00 | 0.12 | 0.01 | 97 | 1011.5 |
| 20260504045417 | 56 | 227 | 0.0 | 0.0 | 0.00 | 0.12 | 0.01 | 97 | 1011.5 |
| 20260504044336 | 56 | 227 | 0.0 | 0.0 | 0.00 | 0.12 | 0.01 | 98 | 1011.5 |
| 20260504043929 | 56 | 227 | 0.0 | 0.0 | 0.00 | 0.12 | 0.01 | 97 | 1011.5 |
| 20260504043910 | 56 | 227 | 0.0 | 0.0 | 0.00 | 0.12 | 0.01 | 97 | 1011.5 |
| 20260504042833 | 55 | 227 | 0.0 | 0.0 | 0.00 | 0.12 | 0.01 | 98 | 1011.5 |
| 20260504042332 | 55 | 227 | 0.0 | 0.0 | 0.00 | 0.12 | 0.01 | 97 | 1011.5 |
| 20260504041830 | 55 | 227 | 0.0 | 0.0 | 0.00 | 0.12 | 0.01 | 97 | 1011.5 |
| 20260504041331 | 56 | 227 | 0.0 | 0.0 | 0.00 | 0.12 | 0.01 | 97 | 1011.5 |
| 20260504041135 | 56 | 227 | 0.0 | 0.0 | 0.00 | 0.12 | 0.01 | 97 | 1011.6 |
| 20260504040329 | 56 | 227 | 0.0 | 0.0 | 0.00 | 0.12 | 0.01 | 97 | 1011.6 |
| 20260504035829 | 56 | 227 | 0.0 | 0.0 | 0.00 | 0.12 | 0.01 | 97 | 1011.6 |
| 20260504035423 | 56 | 227 | 0.0 | 0.0 | 0.00 | 0.12 | 0.01 | 97 | 1011.5 |
| 20260504035403 | 56 | 227 | 0.0 | 0.0 | 0.00 | 0.12 | 0.01 | 97 | 1011.6 |
| 20260504034326 | 56 | 227 | 0.0 | 0.0 | 0.00 | 0.12 | 0.01 | 97 | 1011.5 |
| 20260504033825 | 56 | 227 | 0.0 | 0.0 | 0.00 | 0.12 | 0.01 | 97 | 1011.5 |
| 20260504033325 | 56 | 227 | 0.0 | 0.0 | 0.00 | 0.12 | 0.01 | 97 | 1011.5 |
| 20260504033131 | 56 | 227 | 0.0 | 0.0 | 0.00 | 0.12 | 0.01 | 97 | 1011.6 |
| 20260504032326 | 56 | 227 | 0.0 | 0.0 | 0.00 | 0.12 | 0.01 | 97 | 1011.7 |
| 20260504031825 | 56 | 227 | 0.0 | 0.0 | 0.00 | 0.12 | 0.01 | 97 | 1011.7 |
| 20260504031325 | 56 | 227 | 0.0 | 0.0 | 0.00 | 0.12 | 0.01 | 97 | 1011.7 |
| 20260504030822 | 56 | 227 | 0.0 | 0.0 | 0.00 | 0.12 | 0.01 | 97 | 1011.7 |
| 20260504030321 | 56 | 227 | 0.0 | 0.0 | 0.00 | 0.12 | 0.01 | 97 | 1011.6 |
| 20260504025824 | 56 | 227 | 0.0 | 0.0 | 0.00 | 0.12 | 0.01 | 97 | 1011.6 |
| 20260504025653 | 56 | 227 | 0.0 | 0.0 | 0.00 | 0.12 | 0.01 | 97 | 1011.5 |
| 20260504025345 | 56 | 227 | 0.0 | 0.0 | 0.00 | 0.12 | 0.01 | 97 | 1011.6 |
| 20260504024310 | 55 | 227 | 0.0 | 0.0 | 0.00 | 0.12 | 0.01 | 97 | 1011.5 |
| 20260504023812 | 56 | 227 | 0.0 | 0.0 | 0.00 | 0.12 | 0.01 | 97 | 1011.6 |
| 20260504023309 | 56 | 227 | 0.0 | 0.0 | 0.00 | 0.12 | 0.01 | 97 | 1011.5 |
| 20260504022809 | 56 | 227 | 0.0 | 0.0 | 0.00 | 0.12 | 0.01 | 97 | 1011.4 |
| 20260504022310 | 55 | 227 | 0.0 | 0.0 | 0.00 | 0.12 | 0.01 | 97 | 1011.5 |
| 20260504022109 | 55 | 227 | 0.0 | 0.0 | 0.00 | 0.12 | 0.01 | 97 | 1011.5 |
| 20260504021307 | 55 | 227 | 0.0 | 0.0 | 0.00 | 0.12 | 0.01 | 97 | 1011.5 |
| 20260504020809 | 55 | 227 | 0.0 | 0.0 | 0.00 | 0.12 | 0.01 | 97 | 1011.4 |
| 20260504020605 | 55 | 227 | 0.0 | 0.0 | 0.00 | 0.12 | 0.01 | 97 | 1011.4 |
| 20260504020100 | 55 | 227 | 0.0 | 0.0 | 0.00 | 0.12 | 0.01 | 97 | 1011.4 |
| 20260504015305 | 55 | 227 | 0.0 | 0.0 | 0.00 | 0.12 | 0.01 | 97 | 1011.4 |
| 20260504014805 | 55 | 227 | 0.0 | 0.0 | 0.00 | 0.12 | 0.01 | 97 | 1011.3 |
| 20260504014601 | 54 | 227 | 0.0 | 0.0 | 0.00 | 0.12 | 0.01 | 97 | 1011.2 |
| 20260504014102 | 54 | 227 | 0.0 | 0.0 | 0.00 | 0.12 | 0.01 | 97 | 1011.2 |
| 20260504013306 | 54 | 237 | 0.0 | 0.0 | 0.00 | 0.12 | 0.01 | 97 | 1011.2 |
| 20260504012805 | 54 | 237 | 0.0 | 0.0 | 0.00 | 0.12 | 0.01 | 97 | 1011.3 |
| 20260504012304 | 54 | 237 | 0.0 | 0.0 | 0.00 | 0.12 | 0.01 | 97 | 1011.3 |
| 20260504012057 | 54 | 288 | 0.0 | 0.0 | 0.00 | 0.12 | 0.01 | 97 | 1011.2 |
| 20260504011257 | 54 | 288 | 0.0 | 0.0 | 0.00 | 0.12 | 0.01 | 97 | 1011.2 |
| 20260504011055 | 54 | 288 | 0.0 | 0.0 | 0.00 | 0.12 | 0.01 | 96 | 1011.2 |
| 20260504010253 | 54 | 288 | 0.0 | 0.0 | 0.00 | 0.12 | 0.01 | 96 | 1011.1 |
| 20260504010052 | 54 | 288 | 0.0 | 0.0 | 0.00 | 0.12 | 0.01 | 96 | 1011.1 |
| 20260504005251 | 54 | 262 | 0.0 | 0.0 | 0.00 | 0.12 | 0.01 | 96 | 1011.0 |
| 20260504004751 | 54 | 230 | 0.0 | 0.0 | 0.00 | 0.12 | 0.01 | 96 | 1011.1 |
| 20260504004252 | 54 | 230 | 0.0 | 0.0 | 0.00 | 0.12 | 0.01 | 96 | 1011.1 |
| 20260504004048 | 54 | 230 | 0.0 | 0.0 | 0.00 | 0.12 | 0.01 | 96 | 1011.1 |
| 20260504003251 | 54 | 230 | 0.0 | 0.0 | 0.00 | 0.12 | 0.01 | 96 | 1011.1 |
| 20260504002749 | 54 | 230 | 0.0 | 0.0 | 0.00 | 0.12 | 0.01 | 96 | 1011.2 |
| 20260504002251 | 54 | 230 | 0.0 | 0.0 | 0.00 | 0.12 | 0.01 | 96 | 1011.3 |
| 20260504001745 | 54 | 230 | 0.0 | 0.0 | 0.00 | 0.12 | 0.01 | 96 | 1011.2 |
| 20260504001549 | 54 | 230 | 0.0 | 0.0 | 0.00 | 0.12 | 0.01 | 96 | 1011.3 |
| 20260504000745 | 54 | 230 | 0.0 | 0.0 | 0.00 | 0.12 | 0.01 | 96 | 1011.3 |
| 20260504000246 | 54 | 230 | 0.0 | 0.0 | 0.00 | 0.12 | 0.01 | 96 | 1011.3 |
| 20260503235745 | 54 | 230 | 0.0 | 0.0 | 0.00 | 0.12 | 0.01 | 96 | 1011.3 |
| 20260503235247 | 54 | 230 | 0.0 | 0.0 | 0.00 | 0.12 | 0.01 | 96 | 1011.4 |
| 20260503234745 | 54 | 230 | 0.0 | 0.0 | 0.00 | 0.12 | 0.01 | 96 | 1011.4 |
| 20260503234244 | 54 | 230 | 0.0 | 0.0 | 0.00 | 0.12 | 0.01 | 96 | 1011.3 |
| 20260503233745 | 55 | 230 | 0.0 | 0.0 | 0.00 | 0.12 | 0.01 | 96 | 1011.3 |
| 20260503233241 | 55 | 230 | 0.0 | 0.0 | 0.00 | 0.12 | 0.01 | 96 | 1011.4 |
| 20260503232739 | 55 | 230 | 0.0 | 0.0 | 0.00 | 0.12 | 0.01 | 96 | 1011.3 |
| 20260503232239 | 55 | 230 | 0.0 | 0.0 | 0.00 | 0.12 | 0.01 | 96 | 1011.3 |
| 20260503231739 | 55 | 230 | 0.0 | 0.0 | 0.00 | 0.12 | 0.01 | 96 | 1011.3 |
| 20260503231241 | 55 | 230 | 0.0 | 0.0 | 0.00 | 0.12 | 0.01 | 96 | 1011.2 |
| 20260503231037 | 55 | 230 | 0.0 | 0.0 | 0.01 | 0.12 | 0.01 | 96 | 1011.2 |
| 20260503230235 | 56 | 230 | 0.0 | 0.0 | 0.01 | 0.12 | 0.01 | 96 | 1011.2 |
| 20260503225732 | 56 | 230 | 0.0 | 0.0 | 0.01 | 0.12 | 0.01 | 96 | 1011.3 |
| 20260503225531 | 56 | 230 | 0.0 | 0.0 | 0.01 | 0.12 | 0.01 | 96 | 1011.2 |
| 20260503224733 | 56 | 230 | 0.0 | 0.0 | 0.01 | 0.12 | 0.01 | 96 | 1011.3 |
| 20260503224233 | 56 | 230 | 0.0 | 0.0 | 0.01 | 0.12 | 0.01 | 96 | 1011.3 |
| 20260503223732 | 56 | 230 | 0.0 | 0.0 | 0.01 | 0.12 | 0.01 | 96 | 1011.4 |
| 20260503223532 | 56 | 227 | 0.0 | 0.0 | 0.01 | 0.12 | 0.01 | 96 | 1011.4 |
| 20260503222731 | 56 | 227 | 0.0 | 0.0 | 0.01 | 0.12 | 0.01 | 96 | 1011.4 |
| 20260503222230 | 57 | 227 | 0.0 | 0.0 | 0.01 | 0.12 | 0.01 | 96 | 1011.4 |
| 20260503221728 | 57 | 227 | 0.0 | 0.0 | 0.01 | 0.12 | 0.01 | 96 | 1011.3 |
| 20260503221227 | 57 | 227 | 0.0 | 0.0 | 0.01 | 0.12 | 0.01 | 96 | 1011.2 |
| 20260503220726 | 57 | 227 | 0.0 | 0.0 | 0.00 | 0.11 | 0.00 | 96 | 1011.1 |
| 20260503220225 | 57 | 227 | 0.0 | 2.0 | 0.00 | 0.11 | 0.00 | 96 | 1011.0 |
| 20260503215727 | 57 | 227 | 1.0 | 3.0 | 0.00 | 0.11 | 0.11 | 96 | 1011.0 |
| 20260503215224 | 57 | 211 | 1.0 | 3.0 | 0.00 | 0.11 | 0.11 | 96 | 1011.0 |
| 20260503214721 | 57 | 227 | 0.0 | 2.0 | 0.00 | 0.11 | 0.11 | 96 | 1011.0 |
| 20260503214223 | 57 | 232 | 1.0 | 2.0 | 0.00 | 0.11 | 0.11 | 96 | 1010.9 |
| 20260503213721 | 58 | 215 | 1.0 | 2.0 | 0.00 | 0.11 | 0.11 | 96 | 1011.1 |
| 20260503213222 | 58 | 225 | 0.0 | 0.0 | 0.00 | 0.11 | 0.11 | 96 | 1011.1 |
| 20260503212720 | 58 | 229 | 0.0 | 4.0 | 0.00 | 0.11 | 0.11 | 96 | 1010.9 |
| 20260503212219 | 58 | 225 | 0.0 | 4.0 | 0.00 | 0.11 | 0.11 | 96 | 1010.9 |
| 20260503211805 | 58 | 219 | 0.0 | 0.0 | 0.00 | 0.11 | 0.11 | 95 | 1011.0 |
| 20260503211749 | 58 | 220 | 0.0 | 0.0 | 0.00 | 0.11 | 0.11 | 96 | 1011.0 |
| 20260503211020 | 58 | 225 | 0.0 | 0.0 | 0.00 | 0.11 | 0.11 | 95 | 1010.9 |
| 20260503210210 | 59 | 241 | 0.0 | 0.0 | 0.00 | 0.11 | 0.11 | 95 | 1010.8 |
| 20260503205708 | 59 | 241 | 0.0 | 0.0 | 0.00 | 0.11 | 0.11 | 95 | 1010.8 |
| 20260503205209 | 59 | 241 | 0.0 | 0.0 | 0.00 | 0.11 | 0.11 | 95 | 1010.8 |
| 20260503204704 | 59 | 241 | 0.0 | 0.0 | 0.00 | 0.11 | 0.11 | 95 | 1010.7 |
| 20260503204204 | 59 | 241 | 0.0 | 0.0 | 0.00 | 0.11 | 0.11 | 95 | 1010.6 |
| 20260503203704 | 59 | 241 | 0.0 | 0.0 | 0.00 | 0.11 | 0.11 | 95 | 1010.6 |
| 20260503203203 | 59 | 241 | 0.0 | 0.0 | 0.01 | 0.11 | 0.11 | 95 | 1010.7 |
| 20260503202703 | 59 | 241 | 0.0 | 0.0 | 0.01 | 0.12 | 0.11 | 95 | 1010.7 |
| 20260503202202 | 59 | 241 | 0.0 | 0.0 | 0.02 | 0.12 | 0.11 | 95 | 1010.7 |
| 20260503201703 | 59 | 241 | 0.0 | 0.0 | 0.03 | 0.12 | 0.11 | 95 | 1010.8 |
| 20260503201502 | 59 | 241 | 0.0 | 0.0 | 0.04 | 0.12 | 0.11 | 95 | 1010.7 |
| 20260503200701 | 59 | 241 | 0.0 | 0.0 | 0.04 | 0.19 | 0.11 | 95 | 1010.8 |
| 20260503200200 | 59 | 241 | 0.0 | 0.0 | 0.04 | 0.24 | 0.11 | 94 | 1010.8 |
| 20260503195659 | 59 | 241 | 0.0 | 0.0 | 0.04 | 0.24 | 0.11 | 94 | 1010.8 |
| 20260503195155 | 60 | 241 | 0.0 | 0.0 | 0.04 | 0.24 | 0.11 | 94 | 1010.7 |
| 20260503194653 | 60 | 241 | 0.0 | 0.0 | 0.04 | 0.24 | 0.11 | 94 | 1010.6 |
| 20260503194154 | 60 | 241 | 0.0 | 0.0 | 0.04 | 0.24 | 0.11 | 94 | 1010.5 |
| 20260503193649 | 60 | 241 | 0.0 | 0.0 | 0.04 | 0.24 | 0.10 | 94 | 1010.6 |
| 20260503193152 | 60 | 241 | 0.0 | 0.0 | 0.03 | 0.24 | 0.10 | 94 | 1010.6 |
| 20260503192649 | 60 | 241 | 0.0 | 0.0 | 0.02 | 0.23 | 0.09 | 94 | 1010.6 |
| 20260503192148 | 60 | 241 | 0.0 | 0.0 | 0.02 | 0.22 | 0.09 | 93 | 1010.7 |
| 20260503191940 | 60 | 241 | 0.0 | 0.0 | 0.01 | 0.21 | 0.08 | 93 | 1010.6 |
| 20260503191144 | 60 | 241 | 0.0 | 0.0 | 0.00 | 0.20 | 0.07 | 93 | 1010.6 |
| 20260503190643 | 60 | 241 | 0.0 | 0.0 | 0.00 | 0.20 | 0.07 | 93 | 1010.5 |
| 20260503190140 | 60 | 241 | 0.0 | 2.0 | 0.00 | 0.20 | 0.07 | 93 | 1010.5 |
| 20260503185641 | 60 | 241 | 1.0 | 2.0 | 0.00 | 0.20 | 0.07 | 93 | 1010.5 |
| 20260503185137 | 60 | 225 | 1.0 | 3.0 | 0.00 | 0.20 | 0.07 | 93 | 1010.4 |
| 20260503184640 | 60 | 227 | 2.0 | 3.0 | 0.00 | 0.20 | 0.07 | 93 | 1010.4 |
| 20260503184134 | 60 | 217 | 2.0 | 3.0 | 0.00 | 0.20 | 0.07 | 93 | 1010.4 |
| 20260503183633 | 60 | 227 | 2.0 | 4.0 | 0.00 | 0.20 | 0.07 | 93 | 1010.4 |
| 20260503183127 | 60 | 222 | 2.0 | 4.0 | 0.00 | 0.20 | 0.07 | 93 | 1010.3 |
| 20260503182619 | 60 | 215 | 2.0 | 4.0 | 0.00 | 0.20 | 0.07 | 93 | 1010.3 |
| 20260503182120 | 60 | 221 | 2.0 | 4.0 | 0.00 | 0.20 | 0.07 | 93 | 1010.3 |
| 20260503181618 | 60 | 224 | 2.0 | 4.0 | 0.00 | 0.20 | 0.07 | 93 | 1010.2 |
| 20260503181420 | 60 | 217 | 2.0 | 4.0 | 0.00 | 0.20 | 0.07 | 93 | 1010.2 |
| 20260503180919 | 60 | 218 | 2.0 | 4.0 | 0.00 | 0.20 | 0.07 | 93 | 1010.2 |
| 20260503180114 | 60 | 227 | 2.0 | 4.0 | 0.00 | 0.20 | 0.07 | 93 | 1010.1 |
| 20260503175611 | 60 | 221 | 3.0 | 4.0 | 0.00 | 0.20 | 0.07 | 93 | 1010.1 |
| 20260503175112 | 60 | 228 | 3.0 | 5.0 | 0.00 | 0.20 | 0.07 | 93 | 1010.0 |
| 20260503174611 | 60 | 214 | 3.0 | 5.0 | 0.00 | 0.20 | 0.07 | 93 | 1010.0 |
| 20260503174418 | 60 | 234 | 3.0 | 5.0 | 0.00 | 0.20 | 0.07 | 93 | 1010.0 |